Location: Newark
(30.0333°N, 31.2167°E)
Time: 16:09:29
(UTC+00:00)

Tiros 1 - Pass Details

Date: 02 February 2020
Orbit: 631 x 664 km, 48.4° (Epoch: 22 February)

Event Time Altitude Azimuth Distance (km) Brightness Sun altitude
Rises 07:38:05 0° 257° (WSW) 2,909 10.3 30.6°
Reaches altitude 10° 07:40:41 10° 269° (W) 2,006 9.4 31.0°
Maximum altitude 07:44:38 27° 328° (NNW) 1,205 8.3 31.6°
Drops below altitude 10° 07:48:37 10° 27° (NNE) 2,024 9.6 32.2°
Sets 07:51:15 0° 40° (NE) 2,940 10.4 32.5°
